• Em Portugal
  • Lista de países
  • Para 7 dias
  • Temperatura da água
  • Mapas de satélite
  • Mapa do tempo
  • Widgets de tempo
  • user-avatar
    Iniciar Sessão

    Previsão horária em Río Gallegos

    Hoje, 21 Fevereiro, Quarta-feira

    Tempo Temperatura Precipitação Vento Pressão Humidade
    00:00 +13°C° 0 mm 11 m/s 749 mmHg 55%
    01:00 +13°C° 0 mm 11 m/s 748 mmHg 54%
    02:00 +13°C° 0 mm 10 m/s 747 mmHg 53%
    03:00 +13°C° 0 mm 9 m/s 746 mmHg 52%
    04:00 +13°C° 0 mm 8 m/s 745 mmHg 51%
    05:00 +15°C° 0,1 mm 8 m/s 744 mmHg 52%
    06:00 +15°C° 0,1 mm 9 m/s 744 mmHg 53%
    07:00 +15°C° 0,1 mm 9 m/s 743 mmHg 53%
    08:00 +17°C° 0 mm 10 m/s 743 mmHg 48%
    09:00 +19°C° 0 mm 10 m/s 742 mmHg 43%
    10:00 +22°C° 0 mm 10 m/s 742 mmHg 38%
    11:00 +21°C° 0 mm 11 m/s 742 mmHg 39%
    12:00 +19°C° 0 mm 12 m/s 742 mmHg 39%
    13:00 +19°C° 0 mm 13 m/s 743 mmHg 40%
    14:00 +17°C° 0 mm 14 m/s 744 mmHg 42%
    15:00 +15°C° 0 mm 14 m/s 746 mmHg 44%
    16:00 +13°C° 0 mm 15 m/s 748 mmHg 45%
    17:00 +12°C° 0 mm 14 m/s 749 mmHg 47%
    18:00 +10°C° 0 mm 13 m/s 751 mmHg 48%
    19:00 +9°C° 0 mm 12 m/s 752 mmHg 50%
    20:00 +8°C° 0 mm 12 m/s 753 mmHg 52%
    21:00 +8°C° 0 mm 11 m/s 754 mmHg 54%
    22:00 +8°C° 0 mm 10 m/s 755 mmHg 57%
    23:00 +8°C° 0 mm 10 m/s 756 mmHg 57%

    Amanhã, 22 Fevereiro, Quinta-feira

    Tempo Temperatura Precipitação Vento Pressão Humidade
    00:00 +8°C° 0 mm 9 m/s 757 mmHg 58%
    01:00 +8°C° 0 mm 9 m/s 757 mmHg 58%
    02:00 +8°C° 0 mm 9 m/s 758 mmHg 57%
    03:00 +8°C° 0 mm 9 m/s 758 mmHg 56%
    04:00 +9°C° 0 mm 10 m/s 759 mmHg 55%
    05:00 +9°C° 0 mm 10 m/s 759 mmHg 54%
    06:00 +11°C° 0 mm 10 m/s 760 mmHg 53%
    07:00 +11°C° 0 mm 10 m/s 760 mmHg 52%
    08:00 +13°C° 0 mm 9 m/s 760 mmHg 49%
    09:00 +15°C° 0 mm 9 m/s 761 mmHg 47%
    10:00 +16°C° 0 mm 9 m/s 761 mmHg 44%
    11:00 +17°C° 0 mm 8 m/s 761 mmHg 42%
    12:00 +18°C° 0 mm 8 m/s 761 mmHg 40%
    13:00 +20°C° 0 mm 7 m/s 761 mmHg 38%
    14:00 +20°C° 0 mm 7 m/s 761 mmHg 37%
    15:00 +21°C° 0 mm 6 m/s 761 mmHg 36%
    16:00 +21°C° 0 mm 5 m/s 761 mmHg 35%
    17:00 +20°C° 0 mm 5 m/s 761 mmHg 40%
    18:00 +18°C° 0 mm 4 m/s 761 mmHg 45%
    19:00 +17°C° 0 mm 4 m/s 761 mmHg 50%
    20:00 +15°C° 0 mm 4 m/s 762 mmHg 53%
    21:00 +14°C° 0 mm 3 m/s 762 mmHg 56%
    22:00 +13°C° 0 mm 3 m/s 762 mmHg 58%
    23:00 +13°C° 0 mm 3 m/s 762 mmHg 60%

    Depois de amanhã, 23 Fevereiro, Sexta-feira

    Tempo Temperatura Precipitação Vento Pressão Humidade
    00:00 +13°C° 0 mm 3 m/s 761 mmHg 61%
    01:00 +13°C° 0 mm 2 m/s 761 mmHg 62%
    02:00 +13°C° 0 mm 2 m/s 761 mmHg 64%
    03:00 +13°C° 0 mm 2 m/s 761 mmHg 65%
    04:00 +12°C° 0 mm 1 m/s 761 mmHg 67%
    05:00 +13°C° 0 mm 2 m/s 761 mmHg 64%
    06:00 +13°C° 0 mm 2 m/s 761 mmHg 62%
    07:00 +14°C° 0 mm 2 m/s 762 mmHg 59%
    08:00 +14°C° 0 mm 3 m/s 762 mmHg 54%
    09:00 +17°C° 0 mm 3 m/s 762 mmHg 50%
    10:00 +18°C° 0 mm 4 m/s 761 mmHg 45%
    11:00 +19°C° 0 mm 4 m/s 761 mmHg 43%
    12:00 +20°C° 0 mm 5 m/s 761 mmHg 41%
    13:00 +20°C° 0 mm 5 m/s 761 mmHg 39%
    14:00 +20°C° 0 mm 5 m/s 760 mmHg 40%
    15:00 +20°C° 0 mm 6 m/s 760 mmHg 41%
    16:00 +20°C° 0 mm 6 m/s 760 mmHg 42%
    17:00 +19°C° 0 mm 6 m/s 759 mmHg 46%
    18:00 +16°C° 0 mm 6 m/s 759 mmHg 50%
    19:00 +15°C° 0 mm 5 m/s 758 mmHg 54%
    20:00 +15°C° 0 mm 5 m/s 758 mmHg 56%
    21:00 +14°C° 0 mm 5 m/s 758 mmHg 58%
    22:00 +14°C° 0 mm 5 m/s 757 mmHg 60%
    23:00 +14°C° 0 mm 5 m/s 756 mmHg 60%

    24 Fevereiro, Sábado

    Tempo Temperatura Precipitação Vento Pressão Humidade
    00:00 +13°C° 0 mm 4 m/s 756 mmHg 61%
    01:00 +13°C° 0 mm 3 m/s 755 mmHg 62%
    02:00 +13°C° 0 mm 3 m/s 754 mmHg 61%
    03:00 +13°C° 0 mm 3 m/s 754 mmHg 60%
    04:00 +14°C° 0 mm 2 m/s 753 mmHg 59%
    05:00 +14°C° 0 mm 3 m/s 752 mmHg 57%
    06:00 +16°C° 0 mm 3 m/s 752 mmHg 54%
    07:00 +16°C° 0 mm 3 m/s 751 mmHg 52%
    08:00 +18°C° 0 mm 3 m/s 751 mmHg 46%
    09:00 +20°C° 0 mm 3 m/s 750 mmHg 41%
    10:00 +22°C° 0 mm 4 m/s 749 mmHg 35%
    11:00 +23°C° 0 mm 4 m/s 749 mmHg 31%
    12:00 +26°C° 0 mm 4 m/s 748 mmHg 27%
    13:00 +27°C° 0 mm 5 m/s 747 mmHg 23%
    14:00 +27°C° 0 mm 5 m/s 747 mmHg 23%
    15:00 +27°C° 0 mm 6 m/s 747 mmHg 23%
    16:00 +27°C° 0 mm 7 m/s 747 mmHg 23%
    17:00 +23°C° 0 mm 9 m/s 748 mmHg 31%
    18:00 +21°C° 0 mm 10 m/s 749 mmHg 40%
    19:00 +17°C° 0 mm 11 m/s 750 mmHg 48%
    20:00 +16°C° 0 mm 11 m/s 751 mmHg 52%
    21:00 +14°C° 0 mm 12 m/s 752 mmHg 55%
    22:00 +12°C° 0 mm 12 m/s 753 mmHg 58%
    23:00 +12°C° 0 mm 12 m/s 754 mmHg 59%

    25 Fevereiro, Domingo

    Tempo Temperatura Precipitação Vento Pressão Humidade
    00:00 +10°C° 0 mm 12 m/s 754 mmHg 60%
    01:00 +9°C° 0 mm 11 m/s 755 mmHg 60%
    02:00 +9°C° 0 mm 10 m/s 756 mmHg 61%
    03:00 +8°C° 0 mm 9 m/s 756 mmHg 61%
    04:00 +9°C° 0 mm 8 m/s 757 mmHg 61%
    05:00 +9°C° 0 mm 8 m/s 757 mmHg 59%
    06:00 +9°C° 0 mm 7 m/s 758 mmHg 58%
    07:00 +10°C° 0 mm 7 m/s 758 mmHg 56%
    08:00 +11°C° 0 mm 7 m/s 758 mmHg 51%
    09:00 +12°C° 0 mm 7 m/s 758 mmHg 47%
    10:00 +14°C° 0 mm 7 m/s 758 mmHg 43%
    11:00 +15°C° 0 mm 7 m/s 758 mmHg 42%
    12:00 +16°C° 0 mm 8 m/s 757 mmHg 42%
    13:00 +17°C° 0 mm 8 m/s 757 mmHg 41%
    14:00 +17°C° 0 mm 8 m/s 757 mmHg 41%
    15:00 +17°C° 0 mm 8 m/s 756 mmHg 40%
    16:00 +17°C° 0 mm 8 m/s 756 mmHg 40%
    17:00 +17°C° 0 mm 8 m/s 756 mmHg 42%
    18:00 +16°C° 0 mm 7 m/s 756 mmHg 45%
    19:00 +15°C° 0 mm 7 m/s 757 mmHg 48%
    20:00 +15°C° 0 mm 6 m/s 757 mmHg 49%
    21:00 +15°C° 0 mm 6 m/s 757 mmHg 51%
    22:00 +14°C° 0 mm 6 m/s 757 mmHg 52%
    23:00 +14°C° 0 mm 6 m/s 757 mmHg 53%

    26 Fevereiro, Segunda-feira

    Tempo Temperatura Precipitação Vento Pressão Humidade
    00:00 +14°C° 0 mm 6 m/s 757 mmHg 55%
    01:00 +14°C° 0 mm 6 m/s 757 mmHg 56%
    02:00 +13°C° 0,1 mm 6 m/s 757 mmHg 58%
    03:00 +13°C° 0,1 mm 6 m/s 757 mmHg 60%
    04:00 +13°C° 0,1 mm 5 m/s 757 mmHg 62%
    05:00 +13°C° 0,1 mm 6 m/s 758 mmHg 64%
    06:00 +13°C° 0,1 mm 6 m/s 758 mmHg 65%
    07:00 +13°C° 0,1 mm 6 m/s 758 mmHg 67%
    08:00 +13°C° 0 mm 6 m/s 759 mmHg 64%
    09:00 +14°C° 0 mm 7 m/s 759 mmHg 61%
    10:00 +15°C° 0 mm 7 m/s 760 mmHg 58%
    11:00 +15°C° 0 mm 7 m/s 760 mmHg 57%
    12:00 +14°C° 0 mm 6 m/s 760 mmHg 55%
    13:00 +14°C° 0 mm 6 m/s 760 mmHg 54%
    14:00 +14°C° 0 mm 6 m/s 760 mmHg 53%
    15:00 +14°C° 0 mm 5 m/s 760 mmHg 52%
    16:00 +14°C° 0 mm 5 m/s 760 mmHg 52%
    17:00 +14°C° 0 mm 4 m/s 761 mmHg 53%
    18:00 +14°C° 0 mm 4 m/s 761 mmHg 54%
    19:00 +13°C° 0 mm 3 m/s 761 mmHg 55%
    20:00 +13°C° 0 mm 3 m/s 762 mmHg 57%
    21:00 +13°C° 0 mm 2 m/s 762 mmHg 60%
    22:00 +13°C° 0 mm 2 m/s 762 mmHg 62%
    23:00 +13°C° 0 mm 2 m/s 762 mmHg 64%
    Mostrar mais